Wind_Speed
36 32 31 29 27 27 26 27 27 26 25 25 26 26 24 23 22 23 23 21 21 20 19 18 17 17 15 14 14 14 14 13 12 10 9 9 8 9 11 12 13 15 16 17 17 17 16 15 14 13 13 12 11 11 10 10 9 8 8 7 7 8 9
37 32 29 26 26 28 27 27 28 27 26 25 26 25 24 24 25 26 25 24 23 21 21 20 18 18 16 15 15 15 14 12 11 11 11 10 9 9 10 10 10 11 14 16 17 17 17 16 15 15 14 13 13 12 12 11 11 10 10 10 10 11 12
34 31 30 29 28 28 27 26 27 27 27 26 25 25 25 27 28 28 27 26 25 23 22 22 20 20 18 17 17 16 15 13 12 14 15 14 13 13 12 11 10 9 10 13 16 17 17 17 17 16 15 15 14 14 14 13 13 12 12 11 12 13 14
29 28 29 30 27 26 25 25 27 27 27 27 26 27 27 28 28 28 28 27 26 25 24 23 23 22 21 20 19 17 16 14 14 15 16 16 16 15 13 13 12 10 9 10 13 16 18 18 18 18 17 16 16 16 15 15 15 14 14 13 13 14 15
26 26 26 26 24 23 23 24 26 27 28 28 27 29 29 29 28 29 29 29 28 27 26 25 25 24 24 22 20 19 17 16 16 16 16 17 16 15 14 14 14 13 12 11 12 15 17 18 19 19 19 18 18 18 17 17 17 16 16 15 16 17 17
24 23 23 21 19 20 20 20 22 23 25 27 29 31 31 30 30 30 31 31 31 30 29 28 26 26 26 25 23 21 19 19 19 18 19 19 17 15 16 16 16 15 15 14 14 15 17 19 20 21 20 20 20 20 20 19 19 19 18 18 18 19 19
22 22 22 21 19 19 18 16 16 16 18 21 25 28 30 31 31 33 33 33 33 33 32 29 28 27 27 27 26 24 22 21 21 21 21 21 19 17 17 18 17 18 17 16 16 17 18 20 22 23 23 22 22 23 22 21 21 21 21 21 21 21 21
22 21 22 22 20 18 16 14 13 13 14 16 17 19 22 24 26 29 33 35 34 33 32 32 30 29 28 28 28 27 26 24 24 24 24 23 21 19 19 20 20 20 20 18 18 18 19 21 22 24 24 25 24 24 25 24 23 23 24 24 24 24 24
23 23 21 22 21 18 15 14 14 15 16 17 17 16 16 17 18 20 25 30 33 32 32 32 31 29 29 29 29 28 28 27 27 26 26 26 25 22 21 21 21 22 21 21 20 20 20 21 22 24 25 26 26 26 27 27 26 26 26 26 26 26 26
22 24 22 22 22 19 16 15 15 16 17 16 16 16 14 14 13 12 14 20 25 27 29 31 32 31 31 29 27 27 27 28 29 30 30 28 27 25 23 22 22 22 23 23 23 23 22 22 22 24 25 26 26 27 28 28 28 28 28 28 28 28 27
19 23 22 22 22 19 17 16 15 15 14 14 16 17 14 12 11 9 8 12 16 17 19 23 27 27 27 25 24 23 23 24 26 29 32 32 30 27 25 24 23 24 25 25 25 25 25 24 24 24 25 26 27 27 29 29 29 29 30 30 30 30 29
17 21 23 23 22 20 18 16 16 15 13 13 16 16 13 11 11 10 8 9 12 14 14 16 17 18 19 19 19 20 22 23 23 24 28 32 34 32 29 27 26 26 26 25 26 27 28 28 27 26 26 27 28 28 29 30 29 30 31 31 31 32 31
19 20 23 25 25 23 21 18 16 15 14 13 14 14 12 11 12 12 10 10 12 14 15 15 15 15 17 18 19 19 21 22 22 23 27 31 36 38 37 34 32 31 29 27 26 26 28 30 31 30 29 29 29 30 31 31 30 31 32 33 33 34 34
22 22 24 27 28 28 27 24 21 18 18 17 15 13 12 13 16 16 14 12 12 13 14 14 15 15 16 18 19 20 21 21 21 22 25 29 34 37 38 37 36 36 35 33 30 27 27 30 32 33 33 32 32 32 33 33 32 32 33 34 35 36 37
26 26 27 28 29 29 30 29 25 22 21 21 20 17 16 17 19 19 17 14 13 13 14 15 16 16 16 18 20 21 22 22 21 22 23 25 29 33 36 36 36 37 38 36 34 32 29 30 32 34 35 35 35 35 36 36 35 35 35 35 36 38 39
28 29 29 30 30 30 31 31 29 25 24 24 23 22 22 22 21 20 18 16 15 15 16 17 18 18 19 20 22 23 24 23 22 22 22 23 25 29 35 36 35 37 39 37 36 35 33 32 33 34 35 36 37 37 38 39 39 38 37 37 39 40 40
30 31 31 32 31 31 31 31 31 29 28 27 27 26 26 25 24 23 21 20 19 18 19 20 21 22 23 23 24 25 27 27 25 24 24 24 23 26 31 35 37 39 39 38 38 38 36 35 34 35 35 36 37 38 39 40 41 41 42 41 40 39 39
32 32 33 33 33 33 32 32 31 30 30 30 30 30 29 28 28 26 24 23 21 21 22 23 24 25 25 25 25 25 27 29 28 27 26 26 25 25 27 31 37 41 40 39 40 41 40 39 38 37 36 36 37 38 39 40 41 43 44 43 41 40 40
34 34 34 34 34 34 34 34 33 33 33 33 32 32 32 32 31 29 27 25 24 25 26 27 27 27 27 27 27 26 26 28 28 28 28 28 28 28 28 29 33 38 41 41 42 42 42 43 42 40 39 39 39 39 39 41 42 43 44 44 44 44 45
35 35 34 35 35 35 35 35 35 35 35 35 34 34 34 34 33 32 31 30 29 29 30 30 30 30 30 30 30 28 27 27 27 28 29 29 30 30 30 30 31 34 38 40 42 43 44 44 43 43 44 44 43 42 42 42 44 45 45 44 46 47 47
35 35 35 36 36 36 37 37 37 36 36 36 35 35 35 35 35 34 34 34 33 33 33 32 33 33 33 33 33 32 32 30 29 29 30 29 31 32 33 33 33 33 35 38 42 44 44 44 45 46 47 45 42 42 44 45 45 46 47 46 46 47 48
35 36 36 36 37 37 37 38 38 38 37 37 37 36 37 37 37 37 37 36 36 36 35 35 35 35 36 36 36 36 36 35 32 31 30 31 32 35 36 36 36 36 36 38 41 42 43 44 46 47 46 44 42 42 44 46 47 47 47 46 46 46 47
35 36 36 37 37 38 38 38 39 39 39 38 38 38 38 38 39 39 39 39 38 38 38 37 37 37 38 38 39 39 39 38 36 34 33 34 35 37 38 39 39 39 39 38 39 40 41 43 46 45 45 45 44 43 44 45 45 46 46 46 45 46 47
35 36 37 37 38 39 39 39 39 39 39 39 39 39 39 40 40 40 40 40 41 41 40 40 40 39 40 41 41 41 41 40 39 38 37 36 37 38 39 41 41 42 41 40 40 41 41 42 44 46 46 46 46 45 45 44 45 45 46 46 45 47 48
34 35 36 37 38 39 39 40 40 40 40 40 40 40 40 40 40 41 41 41 41 42 42 42 42 42 42 42 43 43 43 42 41 41 40 40 40 40 41 42 42 43 44 43 43 44 43 42 43 45 47 47 47 46 45 46 46 46 46 47 46 46 47
33 34 35 36 37 38 38 39 40 41 41 41 41 41 41 41 41 41 41 41 42 42 43 43 44 44 44 45 45 45 45 44 43 43 42 42 42 42 43 44 43 44 45 45 45 45 44 43 43 44 45 46 47 47 47 47 47 47 48 49 48 46 46
31 32 34 35 36 37 38 38 39 40 41 41 41 41 42 42 42 42 42 42 42 43 43 44 44 44 45 46 47 47 47 47 46 44 44 45 45 45 45 45 45 45 46 46 47 47 46 45 44 44 44 45 47 48 48 48 48 48 49 49 49 48 48
28 30 32 34 35 37 38 38 39 40 40 41 41 42 42 42 43 43 43 44 44 44 44 44 44 45 45 46 48 49 50 50 49 48 47 47 47 46 46 46 47 47 47 48 48 48 48 47 47 46 47 47 48 48 49 50 51 51 51 51 50 49 49
26 28 29 30 32 34 36 37 38 40 41 41 42 42 43 43 43 44 44 45 45 46 46 46 45 45 46 46 48 50 52 53 53 51 49 48 48 48 48 48 48 48 49 49 50 51 51 51 51 50 50 50 50 50 50 51 53 55 55 55 54 53 52
27 27 28 28 29 30 31 32 34 35 37 39 41 42 43 44 44 44 45 46 46 46 47 47 48 47 47 47 48 51 53 54 54 54 52 51 50 49 49 49 49 49 50 50 51 52 54 55 55 54 54 54 54 54 54 54 55 55 57 58 58 57 56
27 28 28 28 28 28 28 29 29 30 32 34 36 38 40 41 42 43 44 45 45 46 46 47 47 47 47 47 48 50 53 54 55 55 54 53 52 51 51 52 52 52 52 51 52 53 55 56 57 57 57 57 57 58 59 59 59 58 58 59 59 60 59
27 28 28 29 29 29 29 29 29 29 29 30 31 32 34 36 38 39 40 41 42 43 44 44 45 45 46 46 46 48 51 53 54 55 55 55 54 53 53 54 54 54 54 53 53 54 55 56 57 58 59 59 59 60 61 62 62 62 62 61 61 62 62
22 23 25 26 27 28 29 29 30 30 30 30 30 31 31 32 33 34 35 36 37 38 39 40 41 41 42 42 43 45 47 49 51 52 54 55 56 56 56 56 56 56 56 57 57 57 57 57 58 58 59 60 60 60 61 62 63 64 64 64 64 64 64
17 17 18 20 21 23 25 26 27 29 30 30 31 31 31 31 31 31 31 32 32 33 34 35 36 37 38 39 41 42 44 45 46 47 49 50 52 53 55 56 57 58 59 59 60 61 61 62 62 61 61 62 62 62 62 62 63 64 65 65 65 65 65
14 15 15 16 17 19 20 22 23 24 26 27 27 28 28 28 28 29 29 29 30 30 31 31 32 33 35 36 38 39 40 41 42 44 45 47 48 49 51 52 54 55 57 58 59 61 62 64 65 66 66 66 66 67 67 67 67 67 67 67 67 66 67
11 12 13 14 15 16 17 19 20 21 22 23 24 25 25 26 27 27 27 28 29 29 30 30 31 33 34 35 36 36 36 37 38 40 41 43 44 45 47 48 50 51 53 54 55 57 59 61 63 65 67 68 69 70 71 71 71 71 71 71 71 71 71
10 11 11 12 13 14 15 16 18 18 19 20 21 22 23 24 24 25 25 26 27 27 28 28 30 31 33 33 34 35 35 36 37 37 39 40 41 42 43 45 46 47 48 49 51 52 53 55 57 59 61 64 66 68 70 71 72 73 74 74 74 74 75
Wind_Direction
213 211 207 203 204 210 210 211 213 216 220 223 225 227 225 220 219 224 229 231 233 236 238 237 239 242 243 242 242 244 244 245 251 254 251 247 244 240 232 228 229 229 228 229 231 231 231 230 230 230 233 237 241 247 253 258 262 264 266 270 276 283 295
213 210 210 208 209 211 209 209 212 216 219 222 224 225 221 217 219 223 226 228 230 233 236 237 238 241 242 242 244 247 247 247 254 259 257 248 242 241 237 230 229 234 238 237 235 235 235 235 234 234 237 242 245 249 252 256 258 260 264 269 274 282 293
214 213 213 214 214 211 208 209 213 218 221 223 224 225 223 220 219 221 223 225 227 229 233 237 239 240 240 240 242 245 246 244 247 254 257 251 242 240 240 234 223 224 238 243 241 240 239 240 241 240 241 244 249 253 255 257 259 260 262 267 274 280 289
212 213 211 211 213 210 207 209 214 218 221 224 226 227 228 226 225 225 225 226 227 228 230 234 239 242 242 240 240 242 244 243 244 250 255 254 252 251 246 241 233 222 226 237 243 242 241 242 245 246 246 247 251 256 258 261 263 264 264 267 272 278 285
209 210 206 204 206 206 206 208 212 216 219 221 224 228 231 231 232 232 231 230 228 228 229 230 235 241 244 245 244 243 244 246 247 249 253 255 257 256 249 248 247 236 226 229 236 239 238 240 243 246 248 249 250 253 257 261 264 265 267 268 271 275 282
205 205 202 201 199 202 206 208 211 215 218 221 223 227 229 231 233 234 234 233 229 228 229 229 231 237 243 247 248 247 247 249 250 252 255 255 257 255 247 247 248 243 234 227 229 234 235 236 238 241 244 246 249 251 253 257 261 263 264 265 268 272 277
200 202 202 199 194 197 203 204 206 210 215 221 227 231 232 233 235 236 237 235 230 228 229 230 231 233 239 244 248 249 248 249 251 253 256 258 258 255 246 241 243 246 243 232 227 231 234 234 235 237 239 242 246 250 251 253 257 261 262 263 265 269 272
193 197 201 197 190 192 198 197 196 197 201 207 215 223 226 229 233 237 239 238 233 228 228 229 231 232 236 240 243 247 248 247 248 250 253 256 257 256 249 243 242 246 248 243 235 233 236 238 238 238 239 240 242 247 251 252 253 257 261 263 265 268 271
201 202 204 198 190 190 196 195 195 197 197 196 197 203 212 222 229 233 233 232 230 229 229 230 232 233 237 239 242 248 251 252 251 251 251 252 253 254 252 248 244 243 246 249 246 240 239 242 243 242 242 243 244 246 250 252 253 255 259 262 265 269 272
208 205 206 201 196 198 199 194 194 196 197 199 197 197 208 225 230 226 220 217 222 229 235 238 238 238 240 242 243 247 251 253 253 253 252 251 251 251 250 249 247 245 244 248 250 246 243 244 247 248 248 247 247 248 251 253 255 256 258 261 264 266 269
211 206 207 201 196 197 198 196 196 196 201 210 205 198 204 221 228 227 217 208 213 221 229 237 239 238 239 239 239 242 246 250 252 253 253 253 252 250 248 247 246 246 245 246 249 249 248 247 247 250 252 252 252 252 253 255 257 260 261 262 264 265 265
224 214 213 208 201 200 204 207 208 209 214 216 212 210 213 222 233 240 235 226 225 225 230 238 236 235 239 240 242 247 250 253 257 259 258 256 252 248 246 244 243 242 241 244 247 250 250 249 248 249 251 254 255 255 256 257 259 262 265 266 267 267 267
234 225 220 218 216 218 225 227 225 228 233 230 227 229 229 229 242 256 257 247 240 238 242 242 237 240 250 253 256 260 260 260 265 270 267 262 256 251 248 248 248 247 244 243 249 253 253 251 250 250 250 252 254 256 258 259 259 261 265 267 269 271 272
234 232 228 225 224 228 235 240 243 248 254 255 253 246 238 242 255 265 266 255 246 245 247 246 244 251 260 262 264 269 271 273 277 280 278 270 260 253 249 249 252 252 249 246 249 255 258 256 253 252 252 252 253 255 257 259 259 259 262 266 268 270 272
234 233 233 233 232 233 237 241 246 254 258 260 262 257 251 254 261 265 266 261 256 256 257 257 258 261 264 266 268 271 273 277 280 284 286 279 264 250 246 247 249 250 250 249 249 251 255 259 258 256 255 254 254 255 257 259 259 259 259 262 265 267 269
240 238 238 239 239 240 242 245 249 255 257 257 262 265 264 264 264 263 264 265 264 265 266 267 268 268 267 266 268 270 272 273 276 278 281 281 269 253 246 247 250 252 252 252 252 251 251 255 259 260 259 257 256 257 258 260 261 260 259 259 261 264 267
244 244 244 244 245 245 247 249 252 255 257 257 260 263 265 267 266 262 258 257 258 263 267 267 267 269 269 268 269 273 273 271 272 273 272 274 273 264 256 252 252 256 256 253 252 252 251 254 258 262 262 261 260 260 260 262 263 264 262 261 262 266 268
244 245 247 249 250 250 251 253 254 255 256 257 259 260 262 265 266 264 262 258 257 263 268 268 267 269 272 273 275 277 278 277 277 276 274 272 272 272 269 261 255 254 254 252 250 251 253 254 256 258 261 263 264 263 263 264 266 268 268 267 266 267 267
243 245 247 250 252 253 254 255 255 256 256 257 259 261 264 266 268 269 268 267 267 270 274 274 274 274 276 277 278 279 281 282 281 280 279 276 274 274 274 273 266 258 254 252 251 255 261 260 257 256 257 260 262 263 264 264 266 268 269 270 269 267 265
241 243 245 247 250 252 254 255 256 256 257 258 259 262 264 266 268 269 268 269 270 271 273 274 274 275 276 277 277 278 279 279 279 280 279 276 275 275 275 277 275 268 262 258 258 262 266 265 262 261 261 260 259 260 262 264 266 267 268 270 270 269 267
238 240 242 245 247 250 252 255 256 257 258 259 260 261 262 264 265 266 267 268 269 270 271 271 272 273 275 276 277 278 278 277 277 279 278 275 276 278 277 275 274 272 269 268 267 265 265 266 266 266 268 268 264 261 263 264 265 267 268 269 271 271 269
236 239 241 243 245 248 250 253 255 256 258 259 259 260 261 262 264 265 266 267 268 269 269 270 270 271 273 275 276 277 278 277 276 276 276 275 277 279 277 274 273 272 271 271 271 268 265 267 268 268 270 271 268 265 265 265 265 267 269 272 273 273 271
236 239 242 243 245 246 248 250 252 255 256 257 257 258 259 261 262 264 265 266 268 268 269 269 269 270 271 272 273 274 275 275 275 274 272 273 275 277 275 274 273 272 271 270 269 269 269 271 271 271 270 268 267 267 268 267 267 269 272 275 275 275 273
235 238 241 243 245 246 248 249 251 252 254 255 256 257 258 259 260 261 263 264 266 267 268 269 269 268 269 270 271 272 272 273 273 272 271 271 271 272 273 273 272 272 271 269 268 271 274 275 274 273 270 268 268 270 269 268 268 269 272 275 276 275 275
233 236 239 242 245 246 248 250 251 252 253 255 256 256 257 258 258 259 260 261 262 263 265 266 267 268 268 268 269 270 271 271 271 270 270 269 269 268 269 270 271 270 271 270 269 271 272 273 274 273 270 269 270 270 269 267 269 271 272 273 275 275 277
235 237 239 241 244 246 248 249 251 253 254 255 256 256 257 258 258 259 259 259 260 260 262 263 265 266 267 268 269 269 269 269 268 268 268 267 267 266 265 266 267 267 267 268 268 269 268 267 268 270 270 270 270 270 269 267 268 270 271 272 273 275 276
241 241 242 243 244 246 247 249 250 252 253 254 255 256 256 257 258 259 259 260 260 260 260 261 263 264 265 266 267 268 268 268 267 266 266 266 266 265 264 264 264 264 264 265 265 266 267 266 265 265 267 269 269 270 270 269 268 268 269 271 271 273 274
244 245 246 247 247 247 248 248 249 250 251 252 254 255 255 256 256 257 258 259 260 260 260 261 261 262 262 263 264 265 266 267 267 265 264 265 266 266 265 265 264 263 262 262 263 264 266 267 266 265 265 266 268 269 270 270 270 270 270 270 270 271 272
244 246 248 249 250 251 251 251 251 251 251 251 252 253 253 254 254 255 256 257 258 259 260 260 260 260 260 261 262 263 264 265 266 265 264 264 265 265 266 266 265 264 264 263 263 264 264 264 264 264 263 264 265 267 268 269 270 271 271 271 271 271 271
248 249 250 251 252 253 254 254 255 255 255 254 254 254 254 254 254 254 255 255 256 257 258 259 259 259 259 259 259 260 262 263 264 264 264 263 263 264 265 266 265 265 265 265 264 264 264 264 263 263 262 262 262 263 265 267 269 270 271 271 271 271 270
255 256 256 255 255 255 255 255 256 256 257 257 257 258 258 258 257 257 257 257 257 258 258 259 259 260 260 259 258 258 259 260 261 262 263 263 263 263 263 264 264 265 265 265 265 264 264 264 264 264 263 262 262 262 263 265 266 267 269 270 270 270 270
260 260 261 261 260 260 259 258 258 258 258 258 258 259 260 261 261 262 262 263 263 263 263 263 262 262 262 262 261 260 260 260 260 261 262 262 262 262 263 263 264 264 265 265 265 265 264 264 264 265 264 264 263 262 262 263 264 265 266 267 268 269 270
261 261 262 262 262 262 262 262 262 261 261 261 261 261 261 262 263 264 265 267 267 267 268 268 267 267 266 265 265 264 264 263 263 263 263 263 264 264 265 265 264 264 264 265 265 265 265 265 265 265 265 265 264 263 263 263 264 265 265 265 266 267 267
263 263 262 262 262 262 263 263 263 264 264 264 265 265 265 265 265 266 266 267 268 269 269 270 270 270 270 269 267 267 267 267 267 267 267 267 267 267 268 268 268 267 266 266 266 266 267 267 266 266 265 265 265 265 265 264 264 265 265 265 265 266 266
264 264 264 263 262 262 262 263 263 264 264 265 265 265 266 266 267 267 267 268 269 269 270 271 271 271 270 269 269 269 269 269 269 269 269 269 269 269 269 270 270 270 270 269 269 268 269 269 269 268 268 267 267 267 267 266 266 267 267 267 266 266 267
259 260 261 261 261 262 262 262 262 263 263 263 264 264 264 265 265 265 266 266 267 268 269 270 270 269 268 269 270 271 271 271 270 270 270 271 271 271 271 271 271 271 271 272 272 272 271 271 271 271 270 270 270 270 269 269 269 269 268 268 268 268 268
260 261 263 263 263 264 264 264 265 265 266 266 267 267 267 266 266 266 266 266 266 267 267 268 269 270 270 271 272 272 272 272 271 271 271 271 272 272 272 273 273 273 273 273 274 274 274 274 274 273 273 273 273 273 272 272 271 271 271 271 271 270 270
Height
5796 5800 5802 5805 5808 5809 5811 5815 5819 5822 5825 5827 5830 5832 5835 5837 5839 5840 5841 5842 5843 5844 5845 5846 5847 5848 5849 5849 5850 5851 5852 5853 5854 5855 5856 5856 5857 5858 5859 5859 5858 5859 5859 5859 5859 5860 5860 5861 5862 5863 5863 5863 5864 5864 5865 5865 5866 5867 5867 5867 5866 5866 5865
5794 5797 5800 5803 5807 5808 5809 5813 5817 5819 5822 5825 5827 5830 5832 5835 5836 5837 5838 5840 5841 5843 5844 5845 5846 5847 5847 5848 5849 5850 5851 5852 5853 5854 5854 5855 5855 5856 5857 5857 5858 5859 5860 5860 5860 5860 5860 5861 5861 5862 5862 5863 5863 5863 5864 5864 5865 5866 5866 5866 5866 5866 5865
5792 5794 5797 5800 5803 5806 5807 5811 5815 5817 5820 5823 5825 5828 5830 5832 5833 5834 5836 5837 5839 5840 5842 5843 5844 5845 5846 5846 5847 5848 5850 5851 5851 5852 5852 5853 5853 5854 5855 5856 5855 5856 5858 5860 5860 5861 5861 5860 5861 5861 5862 5862 5862 5863 5863 5864 5864 5865 5865 5865 5865 5865 5865
5791 5793 5795 5797 5800 5803 5806 5808 5811 5814 5817 5821 5823 5826 5827 5829 5831 5833 5834 5836 5837 5838 5840 5841 5842 5843 5844 5845 5846 5847 5848 5849 5850 5850 5851 5852 5852 5853 5854 5855 5855 5854 5855 5857 5859 5860 5860 5860 5860 5860 5861 5861 5862 5862 5862 5863 5863 5863 5864 5864 5864 5864 5863
5789 5791 5794 5796 5798 5801 5804 5806 5808 5810 5814 5817 5820 5822 5824 5827 5829 5830 5832 5834 5835 5836 5837 5838 5839 5841 5842 5843 5844 5845 5846 5847 5847 5848 5849 5850 5851 5852 5853 5855 5855 5854 5854 5854 5856 5858 5859 5859 5858 5859 5859 5860 5860 5860 5861 5861 5862 5862 5862 5862 5862 5862 5862
5786 5789 5793 5795 5797 5800 5802 5805 5806 5808 5811 5814 5816 5818 5821 5823 5825 5827 5829 5830 5832 5833 5833 5835 5836 5838 5839 5840 5842 5843 5844 5845 5845 5846 5847 5848 5849 5850 5851 5853 5854 5853 5853 5853 5854 5855 5856 5856 5856 5856 5857 5857 5857 5858 5859 5859 5859 5860 5860 5860 5860 5860 5859
5785 5789 5791 5792 5795 5798 5801 5803 5805 5807 5810 5812 5814 5816 5818 5820 5822 5823 5824 5826 5827 5829 5830 5832 5833 5834 5836 5838 5839 5841 5842 5842 5843 5844 5845 5846 5847 5848 5849 5850 5851 5852 5852 5852 5852 5853 5853 5853 5854 5854 5854 5855 5855 5855 5856 5857 5857 5857 5857 5857 5857 5857 5857
5785 5787 5788 5790 5793 5796 5799 5801 5803 5805 5807 5809 5812 5814 5816 5818 5819 5819 5820 5822 5824 5825 5826 5828 5829 5830 5832 5834 5836 5838 5839 5840 5841 5842 5842 5843 5844 5845 5846 5847 5848 5849 5850 5850 5850 5850 5851 5851 5851 5852 5852 5852 5852 5852 5853 5854 5854 5854 5854 5854 5855 5854 5854
5783 5784 5787 5789 5792 5795 5798 5800 5801 5803 5805 5806 5808 5811 5814 5816 5816 5816 5816 5818 5821 5824 5825 5826 5827 5828 5829 5831 5833 5835 5837 5838 5839 5839 5840 5841 5841 5842 5843 5844 5845 5846 5847 5848 5849 5848 5848 5849 5849 5850 5850 5850 5850 5850 5850 5850 5851 5851 5852 5852 5852 5853 5852
5781 5783 5786 5789 5792 5795 5797 5799 5801 5802 5804 5806 5807 5809 5811 5814 5815 5814 5813 5814 5817 5821 5823 5825 5826 5827 5828 5829 5830 5831 5832 5833 5834 5835 5836 5837 5838 5838 5839 5841 5842 5843 5843 5844 5845 5846 5846 5847 5847 5847 5848 5848 5848 5848 5848 5848 5848 5848 5848 5849 5849 5850 5850
5780 5782 5784 5788 5791 5794 5796 5798 5800 5801 5803 5805 5806 5807 5809 5812 5814 5814 5813 5813 5815 5817 5819 5821 5822 5824 5826 5827 5828 5828 5828 5828 5830 5831 5832 5833 5834 5834 5835 5836 5837 5838 5839 5840 5841 5842 5843 5843 5844 5844 5845 5846 5846 5846 5846 5845 5846 5845 5845 5845 5845 5845 5846
5779 5782 5784 5786 5789 5792 5794 5796 5798 5800 5802 5803 5805 5806 5807 5810 5812 5813 5813 5813 5814 5816 5817 5818 5820 5822 5824 5825 5826 5825 5824 5825 5826 5828 5828 5828 5829 5829 5830 5830 5831 5832 5832 5834 5835 5837 5839 5839 5840 5841 5841 5842 5843 5843 5843 5843 5844 5843 5842 5842 5842 5841 5841
5778 5781 5783 5786 5788 5790 5791 5793 5795 5797 5799 5801 5803 5805 5805 5807 5810 5811 5811 5811 5813 5815 5816 5817 5818 5819 5821 5823 5823 5822 5821 5821 5822 5823 5823 5824 5825 5826 5828 5828 5829 5829 5829 5829 5830 5832 5834 5835 5836 5836 5837 5837 5838 5839 5839 5839 5840 5840 5839 5838 5838 5837 5837
5776 5779 5781 5784 5787 5789 5789 5790 5792 5793 5794 5796 5799 5802 5804 5805 5807 5808 5808 5809 5810 5812 5814 5815 5816 5817 5818 5818 5819 5819 5818 5818 5818 5818 5819 5819 5820 5823 5825 5826 5828 5828 5827 5827 5829 5830 5830 5831 5832 5833 5833 5834 5834 5835 5835 5835 5836 5837 5836 5835 5835 5834 5833
5774 5776 5778 5780 5783 5786 5787 5789 5791 5792 5793 5793 5795 5798 5801 5803 5804 5805 5806 5806 5808 5809 5811 5812 5813 5813 5814 5814 5815 5815 5815 5815 5815 5815 5815 5815 5815 5817 5820 5821 5823 5823 5823 5823 5826 5827 5827 5827 5828 5829 5829 5830 5831 5831 5831 5831 5832 5833 5833 5833 5832 5830 5830
5771 5774 5775 5777 5778 5780 5782 5785 5787 5790 5792 5792 5793 5794 5796 5798 5801 5802 5803 5804 5805 5806 5807 5808 5809 5810 5810 5811 5811 5812 5812 5811 5812 5812 5812 5812 5812 5814 5816 5817 5818 5819 5819 5820 5821 5822 5823 5824 5824 5825 5825 5826 5827 5827 5827 5827 5827 5828 5829 5829 5827 5827 5827
5768 5770 5772 5774 5776 5778 5779 5781 5783 5785 5788 5789 5790 5790 5792 5794 5796 5798 5800 5802 5803 5804 5805 5806 5806 5806 5807 5808 5808 5809 5809 5809 5809 5809 5809 5809 5810 5811 5812 5814 5815 5815 5816 5818 5818 5817 5818 5819 5820 5821 5821 5822 5822 5823 5823 5822 5823 5823 5824 5824 5825 5826 5827
5765 5767 5769 5771 5773 5775 5777 5779 5781 5783 5784 5786 5787 5787 5788 5789 5791 5793 5795 5798 5800 5800 5801 5801 5802 5803 5804 5804 5805 5805 5806 5807 5808 5808 5808 5807 5807 5808 5808 5810 5811 5811 5812 5814 5813 5813 5814 5814 5815 5817 5818 5818 5818 5818 5817 5817 5818 5818 5819 5820 5823 5825 5824
5762 5764 5766 5768 5769 5771 5773 5775 5777 5779 5781 5783 5784 5785 5785 5786 5787 5788 5790 5793 5795 5796 5797 5797 5797 5799 5799 5800 5800 5801 5803 5805 5806 5806 5806 5805 5805 5805 5805 5806 5808 5808 5809 5809 5809 5810 5811 5810 5810 5812 5813 5813 5813 5813 5813 5813 5813 5813 5813 5816 5818 5819 5819
5759 5761 5763 5764 5766 5767 5769 5771 5773 5775 5777 5779 5781 5782 5783 5783 5784 5785 5786 5788 5790 5792 5793 5793 5794 5795 5795 5795 5796 5797 5800 5802 5802 5803 5803 5803 5802 5802 5803 5804 5804 5805 5806 5806 5806 5808 5808 5807 5806 5807 5806 5806 5807 5808 5808 5809 5808 5807 5808 5811 5812 5812 5813
5755 5757 5759 5760 5762 5763 5765 5766 5768 5770 5773 5775 5777 5778 5779 5780 5780 5781 5783 5784 5786 5787 5788 5789 5790 5790 5791 5791 5791 5793 5795 5797 5799 5800 5800 5800 5800 5800 5800 5801 5801 5801 5801 5801 5802 5803 5804 5804 5803 5803 5804 5804 5803 5803 5804 5804 5803 5803 5803 5805 5806 5806 5807
5752 5753 5755 5757 5758 5760 5761 5762 5764 5765 5768 5770 5772 5773 5774 5775 5776 5777 5778 5780 5781 5782 5783 5784 5785 5785 5786 5787 5787 5788 5790 5792 5794 5796 5796 5797 5797 5797 5797 5797 5797 5797 5797 5797 5796 5797 5799 5798 5797 5799 5801 5802 5800 5799 5799 5798 5798 5797 5798 5799 5800 5800 5800
5748 5749 5751 5753 5754 5756 5757 5758 5760 5761 5763 5765 5767 5768 5770 5771 5772 5773 5774 5775 5776 5777 5778 5780 5781 5781 5782 5782 5783 5784 5785 5787 5789 5790 5792 5792 5792 5792 5792 5793 5793 5793 5793 5793 5792 5792 5793 5793 5791 5793 5795 5795 5794 5794 5793 5793 5793 5792 5792 5793 5793 5794 5793
5744 5746 5747 5748 5750 5752 5753 5754 5756 5757 5758 5760 5761 5763 5764 5766 5767 5768 5769 5770 5771 5772 5773 5775 5776 5776 5777 5778 5778 5779 5780 5782 5783 5784 5786 5787 5787 5787 5787 5788 5788 5788 5788 5788 5787 5787 5788 5787 5786 5787 5787 5787 5788 5788 5788 5788 5788 5787 5787 5787 5787 5787 5787
5740 5741 5743 5744 5746 5747 5749 5750 5751 5753 5754 5755 5757 5758 5760 5761 5762 5763 5764 5765 5766 5767 5768 5769 5771 5771 5772 5773 5773 5774 5775 5776 5777 5778 5780 5781 5782 5782 5782 5782 5783 5783 5782 5782 5782 5782 5783 5783 5782 5781 5781 5781 5781 5782 5782 5782 5782 5782 5782 5782 5782 5782 5782
5735 5737 5738 5740 5741 5743 5744 5745 5747 5748 5749 5751 5752 5754 5755 5756 5757 5758 5759 5760 5761 5761 5762 5764 5765 5767 5767 5768 5769 5769 5770 5771 5772 5773 5773 5774 5776 5776 5777 5777 5777 5778 5777 5777 5777 5777 5778 5779 5779 5778 5777 5776 5776 5776 5777 5777 5778 5777 5777 5777 5777 5777 5778
5731 5732 5734 5735 5737 5738 5739 5741 5742 5743 5744 5746 5747 5748 5750 5751 5752 5752 5753 5754 5755 5756 5757 5758 5760 5761 5763 5763 5763 5763 5764 5765 5766 5767 5767 5768 5769 5770 5770 5771 5772 5772 5772 5772 5771 5771 5772 5773 5774 5774 5774 5772 5772 5771 5771 5771 5771 5771 5772 5771 5771 5771 5771
5727 5728 5730 5731 5732 5733 5735 5736 5737 5738 5739 5741 5742 5743 5744 5745 5746 5747 5748 5749 5749 5750 5751 5753 5754 5756 5757 5758 5758 5758 5758 5758 5759 5760 5761 5761 5762 5763 5763 5764 5765 5765 5766 5765 5765 5765 5766 5767 5767 5768 5768 5767 5767 5766 5765 5765 5764 5764 5764 5764 5764 5765 5765
5723 5724 5726 5727 5728 5729 5730 5731 5732 5733 5735 5736 5737 5737 5738 5739 5740 5741 5742 5743 5743 5744 5745 5746 5748 5749 5751 5752 5752 5752 5752 5752 5752 5753 5754 5755 5756 5756 5757 5757 5757 5758 5758 5758 5759 5760 5760 5759 5759 5760 5761 5761 5761 5761 5760 5760 5758 5758 5758 5757 5758 5758 5759
5719 5720 5722 5723 5724 5725 5727 5728 5729 5730 5730 5731 5732 5733 5734 5734 5735 5736 5737 5737 5738 5738 5739 5740 5741 5743 5745 5746 5746 5746 5746 5746 5746 5746 5747 5748 5749 5750 5750 5750 5750 5750 5751 5752 5753 5754 5752 5752 5752 5752 5754 5754 5754 5755 5754 5754 5753 5753 5752 5752 5752 5752 5752
5714 5716 5717 5718 5719 5721 5722 5723 5724 5725 5726 5727 5728 5729 5729 5730 5731 5731 5732 5732 5733 5733 5733 5734 5736 5737 5738 5739 5740 5740 5739 5739 5740 5740 5741 5742 5742 5743 5743 5742 5742 5743 5744 5745 5746 5745 5745 5744 5745 5745 5746 5747 5747 5748 5747 5747 5747 5747 5747 5746 5746 5745 5745
5710 5711 5712 5713 5714 5716 5717 5718 5719 5720 5721 5722 5723 5724 5725 5726 5726 5727 5727 5728 5728 5728 5728 5729 5731 5732 5732 5733 5733 5732 5732 5732 5734 5735 5735 5735 5735 5735 5735 5735 5735 5736 5737 5737 5737 5737 5737 5738 5738 5738 5738 5739 5739 5740 5739 5739 5740 5740 5740 5740 5739 5738 5738
5707 5708 5708 5709 5710 5711 5712 5713 5714 5715 5716 5717 5718 5719 5720 5721 5721 5722 5722 5723 5723 5724 5724 5725 5726 5726 5727 5727 5726 5725 5725 5727 5728 5729 5729 5729 5728 5729 5729 5728 5728 5729 5730 5729 5729 5729 5730 5730 5730 5730 5730 5730 5730 5731 5731 5732 5732 5731 5731 5732 5732 5731 5731
5704 5705 5705 5706 5707 5708 5708 5709 5710 5711 5712 5713 5714 5715 5715 5716 5716 5717 5717 5718 5718 5719 5719 5720 5720 5721 5720 5720 5719 5719 5720 5722 5723 5723 5723 5723 5722 5722 5722 5722 5722 5722 5722 5722 5722 5722 5721 5721 5721 5722 5721 5721 5721 5722 5722 5723 5723 5722 5722 5723 5723 5723 5723
5702 5702 5703 5704 5704 5705 5705 5706 5707 5708 5709 5709 5710 5711 5711 5712 5712 5713 5713 5713 5714 5714 5715 5715 5715 5715 5714 5713 5713 5714 5715 5716 5717 5717 5716 5716 5716 5716 5716 5715 5715 5715 5714 5714 5714 5714 5713 5713 5712 5712 5712 5712 5713 5713 5713 5713 5714 5713 5713 5713 5713 5714 5714
5700 5701 5701 5702 5702 5702 5703 5704 5704 5705 5705 5706 5707 5707 5708 5708 5709 5709 5709 5710 5710 5710 5711 5711 5710 5709 5708 5708 5709 5709 5710 5711 5711 5711 5710 5709 5709 5709 5709 5708 5708 5708 5707 5707 5706 5706 5705 5704 5704 5704 5704 5704 5704 5703 5703 5703 5703 5703 5704 5704 5704 5704 5704
5698 5699 5699 5700 5700 5700 5701 5701 5702 5702 5703 5703 5703 5704 5704 5704 5705 5705 5705 5706 5706 5706 5707 5706 5705 5704 5704 5704 5704 5705 5705 5705 5705 5705 5705 5704 5704 5703 5702 5702 5701 5701 5700 5700 5699 5698 5697 5696 5696 5696 5695 5695 5695 5694 5694 5694 5693 5693 5694 5694 5694 5694 5694